TIANLIAN 1-04

Last updated on Aug. 5, 2020, 5:33 a.m. UTC

1 41869U 16072A   20217.91855002 -.00000123  00000-0  00000-0 0  9993
2 41869   0.1074 283.6313 0018706 175.9171 262.0727  1.00271166 13836
UTC
Height (km)
Latitude
Longitude
Inclination
Orbital Period
UTC large
Height (km)
Speed (km/s)
/
Latitude / Longitude
Inclination (degrees)
Orbital Period (minutes)
Azimuth
Elevation
Range (km)
Doppler Factor
iOS Compass Heading
iOS Angle

Next 30 passes for location: Hong Kong

Rise time Rise Azimuth (degrees) Set time Set Azimuth (degrees) Duration Max altitude (degrees)

No matching passes for this satellites